Date String (YYYY-MM-DD hh:mm:ss) UTC,Instrument flags,absolute air pressure of the measurement (hPa),sample flow rate (lpm),inlet stack bypass flow (lpm),air temperature of the measurement (°C),ambient temperature measured by the external sensor (°C),aerosol sample conditioner tube jacket temperature (°C),OPC LED temperature (°C),internal box temperature (°C),relative humidity of the measurement (%),span deviation,mass concentration of particles derived from Lorenz-Mie calculation of OPC scattering (μg/m³),mass concentration of particles derived from Lorenz-Mie calculation of OPC scattering (μg/m³),mass concentration of particles derived from Lorenz-Mie calculation of OPC scattering (μg/m³)
DateTimeUTC,F1_M11,P_M11,Q1_M11,Q2_M11,T1_M11,T2_M11,T3_M11,T4_M11,T5_M11,U1_M11,ZSPAN_M11,X0_M11,X2_M11,X1_M11
2023-07-03 15:00:00,SystemResetWarning,0832.3,5.00,000.00,029.2,027.6,000.0,037.7,030.8,29.0,0000.0,0008.66,0004.53,0004.11
2023-07-03 15:01:00,SystemResetWarning,0832.3,5.01,000.00,029.2,027.8,000.0,037.7,030.9,29.9,0000.0,0009.79,0004.57,0004.12
2023-07-03 15:02:00,SystemResetWarning,0832.3,5.00,000.00,029.3,027.9,000.0,037.7,030.9,28.8,0000.0,0009.98,0004.62,0004.14
2023-07-03 15:03:00,SystemResetWarning,0832.3,4.99,000.00,029.3,028.0,000.0,037.8,031.0,29.0,0000.0,0009.55,0004.61,0004.14
2023-07-03 15:04:00,SystemResetWarning,0832.3,4.99,000.00,029.3,027.9,000.0,037.7,031.0,29.1,0000.0,0009.69,0004.64,0004.17
2023-07-03 15:05:00,SystemResetWarning,0832.2,5.00,000.00,029.3,026.4,000.0,037.6,030.9,28.5,0000.0,0009.96,0004.71,0004.20
2023-07-03 15:06:00,SystemResetWarning,0832.2,5.00,000.00,029.3,025.3,000.0,037.5,030.7,28.3,0000.0,0010.20,0004.76,0004.21
2023-07-03 15:07:00,SystemResetWarning,0832.2,5.02,000.00,029.2,025.4,000.0,037.5,030.6,28.3,0000.0,0010.28,0004.81,0004.23
2023-07-03 15:08:00,SystemResetWarning,0832.2,5.00,000.00,029.1,025.8,000.0,037.5,030.5,29.8,0000.0,0010.38,0004.88,0004.24
2023-07-03 15:09:00,SystemResetWarning,0832.2,5.00,000.00,029.1,026.2,000.0,037.6,030.5,29.6,0000.0,0010.39,0004.91,0004.25
2023-07-03 15:10:00,SystemResetWarning,0832.2,5.00,000.00,029.1,026.5,000.0,037.6,030.6,29.7,0000.0,0010.38,0004.92,0004.26
2023-07-03 15:11:00,SystemResetWarning,0832.2,4.98,000.00,029.1,026.9,000.0,037.6,030.7,29.3,0000.0,0010.52,0004.92,0004.27
2023-07-03 15:12:00,SystemResetWarning,0832.2,5.00,000.00,029.1,027.2,000.0,037.6,030.7,29.3,0000.0,0009.63,0004.94,0004.28
2023-07-03 15:13:00,SystemResetWarning,0832.2,5.02,000.00,029.1,027.4,000.0,037.7,030.8,28.7,0000.0,0009.83,0004.95,0004.30
2023-07-03 15:14:00,SystemResetWarning,0832.2,5.00,000.00,029.2,027.6,000.0,037.7,030.8,29.1,0000.0,0009.98,0004.99,0004.33
2023-07-03 15:15:00,SystemResetWarning,0832.2,5.00,000.00,029.2,027.8,000.0,037.7,030.9,29.6,0000.0,0010.08,0005.04,0004.34
2023-07-03 15:16:00,SystemResetWarning,0832.2,5.00,000.00,029.2,027.9,000.0,037.7,030.9,29.2,0000.0,0010.05,0005.00,0004.34
2023-07-03 15:17:00,SystemResetWarning,0832.2,5.00,000.00,029.3,028.0,000.0,037.7,031.0,29.0,0000.0,0009.99,0005.00,0004.35
2023-07-03 15:18:00,SystemResetWarning,0832.2,4.98,000.00,029.3,026.9,000.0,037.6,030.9,29.2,0000.0,0010.65,0004.98,0004.35
2023-07-03 15:19:00,SystemResetWarning,0832.2,5.01,000.00,029.2,025.4,000.0,037.5,030.7,29.5,0000.0,0012.25,0004.97,0004.35
2023-07-03 15:20:00,SystemResetWarning,0832.2,5.01,000.00,029.2,025.2,000.0,037.4,030.5,29.4,0000.0,0013.56,0005.02,0004.37
2023-07-03 15:21:00,SystemResetWarning,0832.2,4.99,000.00,029.1,025.6,000.0,037.5,030.4,31.0,0000.0,0013.64,0005.02,0004.38
2023-07-03 15:22:00,SystemResetWarning,0832.2,5.00,000.00,029.0,026.0,000.0,037.5,030.4,32.3,0000.0,0013.58,0005.02,0004.38
2023-07-03 15:23:00,SystemResetWarning,0832.2,5.00,000.00,029.0,026.4,000.0,037.5,030.5,30.5,0000.0,0013.82,0005.02,0004.39
2023-07-03 15:24:00,SystemResetWarning,0832.2,5.01,000.00,029.0,026.7,000.0,037.6,030.6,31.6,0000.0,0014.03,0005.03,0004.39
2023-07-03 15:25:00,SystemResetWarning,0832.2,5.01,000.00,029.0,027.0,000.0,037.6,030.6,30.3,0000.0,0014.38,0005.04,0004.39
2023-07-03 15:26:00,SystemResetWarning,0832.2,4.99,000.00,029.1,027.3,000.0,037.6,030.7,30.3,0000.0,0014.59,0005.01,0004.40
2023-07-03 15:27:00,SystemResetWarning,0832.2,5.00,000.00,029.1,027.5,000.0,037.6,030.8,29.9,0000.0,0014.39,0005.02,0004.41
2023-07-03 15:28:00,SystemResetWarning,0832.1,5.00,000.00,029.1,027.7,000.0,037.6,030.8,30.2,0000.0,0014.39,0005.02,0004.42
2023-07-03 15:29:00,SystemResetWarning,0832.2,5.00,000.00,029.2,027.8,000.0,037.6,030.9,29.7,0000.0,0013.88,0005.05,0004.44
2023-07-03 15:30:00,SystemResetWarning,0832.2,4.99,000.00,029.2,027.8,000.0,037.6,030.9,28.2,0000.0,0012.65,0005.04,0004.46
2023-07-03 15:31:00,SystemResetWarning,0832.2,4.99,000.00,029.2,026.5,000.0,037.5,030.7,27.2,0000.0,0011.30,0005.00,0004.47
2023-07-03 15:32:00,SystemResetWarning,0832.2,5.00,000.00,029.1,025.2,000.0,037.4,030.5,26.8,0000.0,0011.33,0004.96,0004.47
2023-07-03 15:33:00,SystemResetWarning,0832.2,5.01,000.00,029.1,025.3,000.0,037.4,030.5,27.4,0000.0,0011.77,0004.94,0004.47
2023-07-03 15:34:00,SystemResetWarning,0832.1,5.01,000.00,029.0,025.6,000.0,037.4,030.3,27.0,0000.0,0011.50,0004.93,0004.46
2023-07-03 15:35:00,SystemResetWarning,0832.1,5.00,000.00,029.0,026.0,000.0,037.4,030.4,27.1,0000.0,0011.05,0004.90,0004.45
2023-07-03 15:36:00,SystemResetWarning,0832.1,4.98,000.00,029.0,026.4,000.0,037.5,030.5,25.9,0000.0,0010.68,0004.87,0004.45
2023-07-03 15:37:00,SystemResetWarning,0832.1,5.00,000.00,029.0,026.8,000.0,037.5,030.5,26.4,0000.1,0010.94,0004.85,0004.44
2023-07-03 15:38:00,SystemResetWarning,0832.1,5.01,000.00,029.0,027.1,000.0,037.5,030.6,25.1,0001.0,0011.03,0004.81,0004.42
2023-07-03 15:39:00,SystemResetWarning,0832.1,4.99,000.00,029.0,027.3,000.0,037.5,030.7,25.3,0000.9,0012.04,0004.80,0004.41
2023-07-03 15:40:00,SystemResetWarning,0832.1,5.00,000.00,029.1,027.5,000.0,037.5,030.7,24.7,0000.0,0013.38,0004.78,0004.39
2023-07-03 15:41:00,SystemResetWarning,0832.1,5.00,000.00,029.1,027.7,000.0,037.6,030.8,25.0,0000.0,0013.50,0004.75,0004.36
2023-07-03 15:42:00,SystemResetWarning,0832.1,5.00,000.00,029.1,027.8,000.0,037.6,030.8,25.6,0000.0,0012.88,0004.71,0004.34
2023-07-03 15:43:00,SystemResetWarning,0832.0,4.99,000.00,029.1,026.9,000.0,037.5,030.8,25.4,0000.0,0012.78,0004.69,0004.31
2023-07-03 15:44:00,SystemResetWarning,0832.0,4.99,000.00,029.1,025.3,000.0,037.4,030.5,26.4,0000.0,0012.31,0004.69,0004.29
2023-07-03 15:45:00,SystemResetWarning,0832.1,5.02,000.00,029.0,025.1,000.0,037.3,030.4,26.3,0000.0,0012.63,0004.69,0004.27
2023-07-03 15:46:00,SystemResetWarning,0832.0,5.01,000.00,029.0,025.4,000.0,037.3,030.2,27.0,0000.0,0013.45,0004.65,0004.25
2023-07-03 15:47:00,SystemResetWarning,0832.0,5.00,000.00,028.9,025.8,000.0,037.4,030.3,27.1,0000.0,0013.99,0004.65,0004.23
2023-07-03 15:48:00,SystemResetWarning,0832.0,5.01,000.00,028.9,026.2,000.0,037.4,030.4,27.1,0000.0,0013.38,0004.64,0004.22
2023-07-03 15:49:00,SystemResetWarning,0832.0,4.99,000.00,028.9,026.6,000.0,037.4,030.5,26.2,0000.0,0013.72,0004.66,0004.23
2023-07-03 15:50:00,SystemResetWarning,0832.1,4.98,000.00,028.9,026.9,000.0,037.4,030.5,26.1,0000.0,0013.07,0004.68,0004.22
2023-07-03 15:51:00,SystemResetWarning,0832.0,4.99,000.00,029.0,027.2,000.0,037.5,030.6,25.3,0000.0,0011.64,0004.64,0004.21
2023-07-03 15:52:00,SystemResetWarning,0832.0,5.01,000.00,029.0,027.4,000.0,037.5,030.7,24.2,0000.0,0011.26,0004.65,0004.20
2023-07-03 15:53:00,SystemResetWarning,0832.0,5.01,000.00,029.0,027.6,000.0,037.5,030.7,25.0,0000.0,0011.37,0004.70,0004.19
2023-07-03 15:54:00,SystemResetWarning,0832.1,5.00,000.00,029.1,027.8,000.0,037.5,030.8,25.6,0000.0,0011.39,0004.73,0004.19
2023-07-03 15:55:00,SystemResetWarning,0832.1,4.98,000.00,029.1,027.3,000.0,037.5,030.8,26.0,0000.0,0011.16,0004.72,0004.18
2023-07-03 15:56:00,SystemResetWarning,0832.0,5.01,000.00,029.1,025.7,000.0,037.4,030.5,25.3,0000.0,0010.68,0004.69,0004.17
2023-07-03 15:57:00,SystemResetWarning,0832.0,5.00,000.00,029.0,025.1,000.0,037.3,030.4,25.2,0000.0,0010.98,0004.70,0004.17
2023-07-03 15:58:00,SystemResetWarning,0832.0,5.00,000.00,028.9,025.4,000.0,037.3,030.3,25.8,0000.0,0010.17,0004.69,0004.16
2023-07-03 15:59:00,SystemResetWarning,0832.0,5.01,000.00,028.9,025.8,000.0,037.3,030.2,24.1,0000.0,0010.18,0004.70,0004.15
